[[{"header":{"parameterUnit":"m.s-1","parameterCategory":1,"la1":30.2991,"la2":30.254,"lo1":-89.0895,"lo2":-89.0444,"dy":0.0017,"dx":0.0017,"nx":28,"ny":28,"refTime":"2023-03-22T21:00:00:Z","depth":0,"parameterNumber":2,"parameterNumberName":"U-component_of_WINDS"},"data":[0,0,0,0,0,0,0,0,0,0,0,0,0,0,0,0,0,0,0,0,0,0,0,0,0,0,0,0,0,0,0,0,0,0,0,0,0,0,0,0,0,0,0,0,0,0,0,0,0,0,0,0,0,0,0,0,0,0,-1.9536,-1.9537,0,-1.9586,-1.9586,-1.9587,-1.9582,-1.9582,-1.9581,-1.958,-1.9631,-1.9633,-1.9635,0,0,0,0,0,0,0,0,0,0,0,0,0,-1.9439,-1.9441,-1.9536,-1.9537,-1.9538,-1.9586,-1.9586,-1.9587,-1.9582,-1.9581,-1.9581,-1.958,-1.963,-1.9632,-1.9635,0,0,0,0,0,0,0,0,0,0,0,0,0,-1.9484,-1.9442,-1.9536,-1.9541,-1.9542,-1.9585,-1.9586,-1.9587,-1.9583,-1.9581,-1.958,-1.9579,-1.9629,-1.9632,-1.9635,-1.9677,0,0,-1.9645,-1.9646,0,0,0,0,0,0,0,0,-1.9482,-1.9488,-1.954,-1.9541,-1.9542,-1.9577,-1.9571,-1.9617,-1.9583,-1.9567,-1.958,-1.9579,-1.9614,-1.9618,-1.963,-1.9679,-1.9682,-1.9645,-1.9647,-1.9648,-1.9649,0,0,0,0,0,0,0,-1.9479,-1.9486,-1.9556,-1.9541,-1.9542,-1.9541,-1.9546,-1.9579,-1.9596,-1.9568,-1.9568,-1.9574,-1.9614,-1.9627,-1.9631,-1.9682,-1.9645,-1.9648,-1.9649,-1.9651,-1.977,-1.9771,0,0,0,0,0,0,-1.9474,-1.9483,-1.9554,-1.9557,-1.9508,-1.9544,-1.955,-1.9567,-1.9596,-1.9599,-1.9575,-1.9574,-1.9622,-1.9627,-1.9633,-1.9683,-1.9648,-1.9651,-1.9653,-1.9768,-1.977,-1.9771,0,0,0,0,0,0,-1.9472,-1.9481,-1.9552,-1.952,-1.9529,-1.9547,-1.9566,-1.9568,-1.9581,-1.9601,-1.9604,-1.9585,-1.9621,-1.9628,-1.9666,-1.9685,-1.9652,-1.9655,-1.9767,-1.9769,-1.9771,-1.9785,0,0,0,0,0,0,-1.9469,-1.948,-1.9496,-1.9521,-1.9531,-1.9585,-1.9567,-1.957,-1.9586,-1.9585,-1.9611,-1.9614,-1.9621,-1.9662,-1.9669,-1.9689,-1.9658,-1.9765,-1.9768,-1.977,-1.9783,-1.9787,-1.9791,0,0,0,0,0,-1.9466,-1.9498,-1.9496,-1.9505,-1.9551,-1.9586,-1.9592,-1.9599,-1.9588,-1.9604,-1.9617,-1.9613,-1.9682,-1.9665,-1.9674,-1.9695,-1.9764,-1.9767,-1.977,-1.9781,-1.9786,-1.9791,0,0,0,0,0,0,-1.9474,-1.9501,-1.95,-1.9541,-1.9561,-1.9585,-1.9605,-1.9604,-1.9628,-1.9626,-1.9634,-1.964,-1.9678,-1.9691,-1.9672,-1.9737,-1.9722,-1.9726,-1.9727,-1.9732,-1.9736,-1.9732,-1.966,0,0,0,0,0,-1.9481,-1.9507,-1.9529,-1.9563,-1.9573,-1.9587,-1.9603,-1.9607,-1.9628,-1.9637,-1.9653,-1.9674,-1.97,-1.9717,-1.9743,-1.9785,-1.9791,-1.9804,-1.9808,-1.9811,-1.9815,-1.9839,-1.9844,-1.9781,-1.9781,-1.9781,0,0,-1.9494,-1.9512,-1.9528,-1.9565,-1.9581,-1.9608,-1.9595,-1.9623,-1.9643,-1.9641,-1.9678,-1.969,-1.9715,-1.9755,-1.9774,-1.9766,-1.9834,-1.9815,-1.9817,-1.9819,-1.9842,-1.9848,-1.9853,-1.9783,-1.9783,-1.9782,0,0,-1.9533,-1.9549,-1.9579,-1.9596,-1.9621,-1.963,-1.9638,-1.9662,-1.967,-1.9707,-1.9707,-1.9731,-1.9776,-1.9794,-1.9808,-1.9855,-1.9853,-1.9863,-1.9884,-1.9907,-1.9912,-1.9916,-1.9932,-1.9938,-1.9867,-1.9867,-1.9867,0,-1.9546,-1.9586,-1.9594,-1.9623,-1.964,-1.964,-1.967,-1.9686,-1.9718,-1.973,-1.9722,-1.9779,-1.9795,-1.984,-1.9851,-1.9864,-1.9872,-1.9859,-1.991,-1.9915,-1.9919,-1.9935,-1.9941,-1.9868,-1.9868,-1.9868,-1.9868,0,-1.9602,-1.963,-1.9651,-1.9682,-1.9701,-1.973,-1.9743,-1.9762,-1.9765,-1.9776,-1.9814,-1.9834,-1.9863,-1.9875,-1.9878,-1.992,-1.9915,-1.9908,-1.9893,-1.9926,-1.9941,-1.9947,-1.987,-1.987,-1.9869,-1.9869,0,0,-1.9645,-1.9681,-1.9688,-1.9702,-1.9731,-1.9753,-1.9783,-1.9812,-1.9827,-1.985,-1.9876,-1.9915,-1.9909,-1.9926,-1.9932,-1.9952,-1.9988,-1.9944,-1.9944,-1.995,-2.0035,-2.0039,-2.0045,-1.9987,-1.9988,-1.9989,-2.0033,0,-1.9685,-1.9738,-1.9747,-1.9793,-1.9819,-1.982,-1.9847,-1.9867,-1.9879,-1.9903,-1.9916,-1.9943,-1.9934,-1.9944,-1.9965,-1.9979,-2.0005,-1.9976,-2.001,-2.0011,-2.0003,-2.0053,-2.0057,-2.0097,-2.0039,-2.004,-2.004,0,-1.9739,-1.9763,-1.9812,-1.9837,-1.9848,-1.9872,-1.9899,-1.9922,-1.9946,-1.9953,-1.9973,-1.9976,-2.0008,-1.9992,-2.0037,-2.0017,-2.0032,-2.0041,-2.0043,-2.0045,-2.0027,-2.0056,-2.011,-2.0115,-2.005,-2.0049,-2.0048,0,-1.9764,-1.9809,-1.9844,-1.9856,-1.9887,-1.9903,-1.9917,-1.994,-1.9957,-1.9982,-1.9993,-2.0021,-2.0036,-2.0058,-2.007,-2.0057,-2.0113,-2.0098,-2.0119,-2.0119,-2.013,-2.0128,-2.0186,-2.0142,-2.0141,-2.0141,-2.0141,0,-1.9807,-1.9837,-1.9856,-1.9877,-1.9911,-1.9921,-1.9954,-1.9968,-1.9988,-2.0013,-2.0017,-2.0039,-2.0053,-2.0079,-2.0088,-2.0123,-2.013,-2.0137,-2.0138,-2.0135,-2.0134,-2.0144,-2.0141,-2.0143,-2.0143,-2.0142,-2.0142,0,-1.984,-1.9854,-1.9892,-1.9919,-1.9926,-1.995,-1.9972,-1.9993,-2.0006,-2.0036,-2.0044,-2.0063,-2.0093,-2.0107,-2.0144,-2.0151,-2.019,-2.0191,-2.0182,-2.0182,-2.0203,-2.02,-2.0267,-2.0276,-2.0227,-2.0227,-2.0228,0,-1.9866,-1.9889,-1.9918,-1.9934,-1.9948,-1.9975,-1.9993,-2.0005,-2.0023,-2.0053,-2.0071,-2.0101,-2.0125,-2.0173,-2.0191,-2.0219,-2.022,-2.0242,-2.0224,-2.022,-2.0219,-2.0217,-2.0219,-2.0244,-2.0244,-2.0245,-2.0245,0,-1.991,-1.9916,-1.9941,-1.9969,-1.999,-2.0013,-2.0035,-2.0049,-2.0065,-2.0085,-2.0116,-2.0135,-2.0173,-2.0203,-2.0233,-2.0248,-2.0249,-2.0251,-2.0257,-2.0253,-2.0247,-2.025,-2.0189,-2.0249,-2.0248,-2.0248,-2.0248,-2.0248,-1.994,-1.996,-1.9984,-2.0012,-2.003,-2.0051,-2.0072,-2.0088,-2.0113,-2.0145,-2.0151,-2.0184,-2.0208,-2.0249,-2.0265,-2.0291,-2.0285,-2.0295,-2.0297,-2.0298,-2.0299,-2.0244,-2.0296,-2.0296,-2.0296,-2.0296,-2.0296,0,-1.9984,-1.9999,-2.0025,-2.0056,-2.0078,-2.0078,-2.0103,-2.0122,-2.0151,-2.0173,-2.0197,-2.0233,-2.0263,-2.0283,-2.0313,-2.033,-2.0331,-2.0337,-2.0335,-2.0339,-2.0302,-2.0293,-2.0336,-2.0336,-2.0336,-2.0336,-2.0336,-2.0335,-2.0009,-2.0043,-2.0052,-2.0096,-2.0112,-2.0143,-2.0158,-2.0177,-2.0195,-2.0235,-2.0259,-2.0272,-2.0294,-2.0326,-2.0353,-2.0359,-2.0369,-2.0375,-2.038,-2.0345,-2.0341,-2.0337,-2.0329,-2.0378,-2.0378,-2.0414,-2.0414,-2.0415]},{"header":{"parameterUnit":"m.s-1","parameterCategory":1,"la1":30.2991,"la2":30.254,"lo1":-89.0895,"lo2":-89.0444,"dy":0.0017,"dx":0.0017,"nx":28,"ny":28,"refTime":"2023-03-22T21:00:00:Z","depth":0,"parameterNumber":3,"parameterNumberName":"V-component_of_WINDS"},"data":[0,0,0,0,0,0,0,0,0,0,0,0,0,0,0,0,0,0,0,0,0,0,0,0,0,0,0,0,0,0,0,0,0,0,0,0,0,0,0,0,0,0,0,0,0,0,0,0,0,0,0,0,0,0,0,0,0,0,1.5295,1.5295,0,1.5323,1.5324,1.5324,1.5314,1.5314,1.5313,1.5312,1.534,1.5341,1.5342,0,0,0,0,0,0,0,0,0,0,0,0,0,1.523,1.5232,1.5295,1.5295,1.5296,1.5323,1.5324,1.5324,1.5314,1.5314,1.5313,1.5312,1.5339,1.5341,1.5342,0,0,0,0,0,0,0,0,0,0,0,0,0,1.5259,1.5232,1.5295,1.5294,1.5294,1.5323,1.5324,1.5324,1.5314,1.5314,1.5313,1.5312,1.5339,1.5341,1.5342,1.5373,0,0,1.5348,1.5349,0,0,0,0,0,0,0,0,1.5257,1.5261,1.5294,1.5294,1.5294,1.5314,1.5311,1.5341,1.5315,1.5307,1.5312,1.5311,1.5332,1.5334,1.5342,1.5375,1.5376,1.5349,1.535,1.5351,1.5351,0,0,0,0,0,0,0,1.5255,1.526,1.5306,1.5294,1.5295,1.5292,1.5295,1.5317,1.5324,1.5307,1.5307,1.531,1.5332,1.534,1.5342,1.5376,1.5349,1.535,1.5352,1.5352,1.5438,1.5439,0,0,0,0,0,0,1.5253,1.5258,1.5305,1.5307,1.5273,1.5294,1.5297,1.5309,1.5324,1.5325,1.5311,1.531,1.5337,1.534,1.5343,1.5382,1.5351,1.5353,1.5354,1.5437,1.5438,1.5439,0,0,0,0,0,0,1.5252,1.5257,1.5304,1.5282,1.5288,1.5296,1.5309,1.531,1.5318,1.5327,1.5328,1.5318,1.5336,1.534,1.5366,1.5382,1.5353,1.5355,1.5435,1.5437,1.5439,1.5458,0,0,0,0,0,0,1.525,1.5257,1.5269,1.5283,1.5289,1.5327,1.531,1.5311,1.5322,1.532,1.5334,1.5335,1.5336,1.5364,1.5368,1.5385,1.5357,1.5434,1.5436,1.5438,1.5456,1.546,1.5464,0,0,0,0,0,1.5248,1.5273,1.527,1.5275,1.5305,1.5328,1.5332,1.5333,1.5323,1.5335,1.5341,1.5334,1.538,1.5366,1.5372,1.5389,1.5433,1.5435,1.5438,1.5454,1.546,1.5464,0,0,0,0,0,0,1.5259,1.5274,1.5271,1.5301,1.5314,1.5327,1.5342,1.5338,1.5353,1.5351,1.5351,1.5354,1.5382,1.5388,1.5372,1.542,1.5405,1.5408,1.5416,1.542,1.5424,1.5423,1.5358,0,0,0,0,0,1.5266,1.5284,1.5296,1.5321,1.5328,1.5334,1.5344,1.5344,1.5357,1.5362,1.5369,1.5381,1.5398,1.5409,1.5425,1.5457,1.546,1.5471,1.5475,1.5478,1.5482,1.55,1.5505,1.5447,1.5447,1.5447,0,0,1.5278,1.5289,1.53,1.5324,1.5334,1.5353,1.5338,1.5358,1.5373,1.5364,1.539,1.5396,1.541,1.5439,1.5452,1.5445,1.5498,1.5481,1.5484,1.5485,1.5503,1.5509,1.5513,1.5449,1.5449,1.5448,0,0,1.5312,1.5321,1.5344,1.5355,1.537,1.5374,1.5379,1.5393,1.5397,1.5423,1.5418,1.5434,1.5463,1.5474,1.5483,1.5522,1.5517,1.5527,1.5547,1.5565,1.557,1.5574,1.5589,1.5594,1.553,1.553,1.553,0,1.5326,1.5355,1.5356,1.5378,1.5389,1.5383,1.5407,1.5416,1.5436,1.5443,1.5435,1.5472,1.5481,1.5513,1.5523,1.553,1.5537,1.5525,1.5569,1.5573,1.5577,1.5591,1.5597,1.5531,1.5531,1.5531,1.5531,0,1.5372,1.5392,1.5409,1.5429,1.5442,1.5464,1.5469,1.5482,1.5481,1.5486,1.5513,1.5523,1.5542,1.5549,1.5548,1.5582,1.5577,1.5569,1.5553,1.5584,1.5597,1.5603,1.5533,1.5532,1.5532,1.5532,0,0,1.5413,1.5435,1.5441,1.5451,1.5468,1.5484,1.5506,1.5525,1.5537,1.555,1.557,1.5595,1.5588,1.5598,1.5598,1.5614,1.5646,1.5603,1.5604,1.5612,1.5685,1.5693,1.5699,1.5642,1.5643,1.5644,1.5685,0,1.5449,1.549,1.5492,1.5529,1.5548,1.5543,1.5563,1.5575,1.5581,1.5598,1.5603,1.5622,1.561,1.5617,1.5632,1.5638,1.566,1.5635,1.566,1.5661,1.5659,1.5706,1.5713,1.5751,1.569,1.5691,1.5691,0,1.5497,1.5513,1.5552,1.5568,1.5576,1.5594,1.5613,1.5629,1.5643,1.5646,1.5658,1.5656,1.5679,1.5662,1.5695,1.5678,1.5688,1.5693,1.5694,1.5697,1.5679,1.5712,1.5763,1.577,1.5699,1.5699,1.5698,0,1.5525,1.5557,1.5585,1.5593,1.5612,1.5624,1.5633,1.5646,1.5658,1.5674,1.5682,1.57,1.571,1.5724,1.5727,1.5714,1.576,1.5743,1.5763,1.5764,1.5774,1.5774,1.5829,1.5778,1.5778,1.5778,1.5778,0,1.5566,1.559,1.5598,1.5616,1.5643,1.5645,1.5672,1.5679,1.5691,1.571,1.5706,1.5723,1.5726,1.5744,1.5746,1.5773,1.5777,1.5781,1.5781,1.5782,1.5782,1.579,1.5788,1.578,1.5779,1.5779,1.5779,0,1.5603,1.5609,1.5639,1.5655,1.5659,1.5679,1.5692,1.5709,1.5714,1.5737,1.5743,1.5751,1.5772,1.5776,1.5801,1.5802,1.5835,1.5832,1.5831,1.5831,1.5852,1.5851,1.5916,1.5925,1.5867,1.5867,1.5868,0,1.5629,1.5648,1.5666,1.5679,1.5688,1.5708,1.5721,1.5724,1.5737,1.5755,1.577,1.5791,1.5808,1.5842,1.585,1.5869,1.5867,1.5889,1.587,1.5871,1.587,1.5869,1.5872,1.5893,1.5894,1.5894,1.5894,0,1.5676,1.5678,1.5697,1.5718,1.5733,1.5749,1.5764,1.5775,1.578,1.5795,1.5817,1.583,1.5856,1.5878,1.5897,1.5905,1.5901,1.59,1.5906,1.5908,1.5907,1.5909,1.5843,1.5899,1.5898,1.5898,1.5898,1.5898,1.5709,1.5727,1.5743,1.5764,1.5776,1.5791,1.5808,1.5815,1.5834,1.5857,1.5857,1.5881,1.5896,1.5921,1.5931,1.595,1.5943,1.5951,1.5954,1.5956,1.5959,1.5903,1.5953,1.5953,1.5953,1.5953,1.5953,0,1.5758,1.5768,1.5788,1.581,1.5827,1.5822,1.5839,1.5853,1.5875,1.5889,1.5907,1.5933,1.5954,1.5963,1.5984,1.5998,1.5996,1.6003,1.6003,1.6005,1.5963,1.5957,1.6004,1.6004,1.6004,1.6004,1.6004,1.6004,1.5785,1.5814,1.5819,1.5854,1.5864,1.5889,1.5899,1.5913,1.5924,1.5954,1.5972,1.5978,1.5991,1.6013,1.6032,1.6034,1.6042,1.605,1.6052,1.6013,1.6008,1.6003,1.5997,1.6051,1.6052,1.6092,1.6093,1.6093]}]]